AO-07 1 07530U 74089B 26235.83660881 -.00000032 00000-0 92574-4 0 9998 2 07530 101.9921 249.7905 0012261 4.1018 170.8352 12.53699176368992 UO-11 1 14781U 84021B 26235.13665590 .00001277 00000-0 13508-3 0 9996 2 14781 97.8126 199.9939 0006825 334.0789 26.0087 14.90938260267101 LO-19 1 20442U 90005G 26235.50831170 .00000072 00000-0 42285-4 0 9993 2 20442 98.8842 259.1639 0011737 14.2970 345.8543 14.34139286912049 AO-27 1 22825U 93061C 26235.89552797 .00000050 00000-0 35919-4 0 9994 2 22825 98.6828 303.2664 0007256 260.1994 99.8369 14.30956899716683 FO-29 1 24278U 96046B 26234.99810505 -.00000005 00000-0 34201-4 0 9992 2 24278 98.5190 74.7120 0348806 283.1085 73.1351 13.53276958482209 GO-32 1 25397U 98043D 26235.70811367 .00000051 00000-0 42253-4 0 9997 2 25397 99.0127 230.1872 0002007 52.5117 307.6243 14.24439425460945 ISS 1 25544U 98067A 26235.72586232 .00009235 00000-0 17193-3 0 9996 2 25544 51.6333 325.8142 0007701 76.3746 283.8100 15.49592931582225 NO-44 1 26931U 01043C 26235.83897790 .00000078 00000-0 60221-4 0 9998 2 26931 67.0496 69.2902 0005652 270.3388 89.7066 14.31977189300135 SO-50 1 27607U 02058C 26235.51729382 .00000792 00000-0 11077-3 0 9999 2 27607 64.5513 280.6475 0073150 250.1180 109.2034 14.83172591274444 CO-55 1 27844U 03031E 26235.47433543 .00000224 00000-0 11577-3 0 9995 2 27844 98.6765 243.1950 0009455 357.8963 2.2174 14.24370673201259 RS-22 1 27939U 03042A 26235.99937543 .00001190 00000-0 19091-3 0 9990 2 27939 98.3489 62.2889 0012451 56.7287 99.1143 14.73572354225531 CO-65 1 32785U 08021C 26235.91866250 .00004174 00000-0 26090-3 0 9997 2 32785 97.8336 218.7981 0009500 148.4695 211.7104 15.09993442995410 CO-66 1 32791U 08021J 26235.72199945 .00017474 00000-0 51874-3 0 9998 2 32791 97.7556 236.9685 0004757 83.1761 277.0022 15.34858148997643 RS-30 1 32953U 08025A 26235.94151275 .00000021 00000-0 75996-4 0 9992 2 32953 82.5063 313.3020 0020150 160.9337 199.2502 12.43182162828115 SRMSAT 1 37841U 11058D 26235.72294520 .00000368 00000-0 55741-4 0 9990 2 37841 19.9733 10.6829 0011620 227.1621 162.7905 14.11588002767374 ZACUBE-1 1 39417U 13066B 26235.85429457 .00005196 00000-0 39801-3 0 9997 2 39417 97.8034 198.5147 0041994 26.5463 333.7899 15.01602206690881 Delfi-N3xt 1 39428U 13066N 26235.69151219 .00006300 00000-0 53973-3 0 9993 2 39428 97.8291 155.9588 0073197 343.4673 16.4161 14.95836369684711 GOMX-1 1 39430U 13066Q 26235.93442944 .00001808 00000-0 27643-3 0 9994 2 39430 97.6455 72.1272 0127103 219.3420 139.8502 14.69628149679867 LO-74 1 39440U 13066AA 26235.84320093 .00001893 00000-0 17696-3 0 9996 2 39440 97.8943 185.1446 0057385 161.4601 198.8727 14.94152813687098 AO-73 1 39444U 13066AE 26235.38803397 .00006760 00000-0 41071-3 0 9994 2 39444 97.8341 208.2997 0034874 338.1701 21.8039 15.10319621689807 DTUSAT-2 1 40030U 14033W 26235.45636503 .00005495 00000-0 29163-3 0 9995 2 40030 98.0902 237.5082 0008153 19.1780 340.9756 15.15778156662876 LILACSAT-2 1 40908U 15049K 26235.94783786 .00016797 00000-0 26496-3 0 9990 2 40908 97.4600 275.4471 0006649 23.3336 336.8218 15.53583536606269 Lapan A3 1 41603U 16040E 26235.93218769 .00002653 00000-0 84161-4 0 9998 2 41603 97.1542 229.8881 0011668 126.1779 234.0545 15.33479458565195 CAS-2T 1 41847U 16066G 26235.83271480 .00000416 00000-0 68604-4 0 9993 2 41847 98.3780 310.7944 0340089 284.3544 72.0123 14.44813000514564 TechnoSat 1 42829U 17042E 26235.86058379 .00002993 00000-0 21293-3 0 9996 2 42829 97.4353 30.9924 0016676 219.6307 140.3702 15.05283877496887 AO-91 1 43017U 17073E 26235.52840941 .00007764 00000-0 33024-3 0 9993 2 43017 97.4607 101.3696 0149823 95.8564 265.9768 15.13578691475577 S-Net D 1 43186U 18014G 26235.61253593 .00004374 00000-0 22324-3 0 9992 2 43186 97.5279 139.9805 0009250 135.3109 224.8871 15.17208900468986 S-Net B 1 43187U 18014H 26235.69130326 .00004320 00000-0 22072-3 0 9990 2 43187 97.5282 140.0473 0009932 131.4909 228.7178 15.17177395468994 S-Net A 1 43188U 18014J 26235.67699939 .00004321 00000-0 22051-3 0 9997 2 43188 97.5294 140.2549 0009832 132.1570 228.0500 15.17217785468995 S-Net C 1 43189U 18014K 26235.69558394 .00004231 00000-0 21624-3 0 9994 2 43189 97.5312 140.3585 0011318 126.5857 233.6419 15.17167234467549 Ten-Koh 1 43677U 18084G 26235.49462450 .00002456 00000-0 18657-3 0 9997 2 43677 98.0747 70.7007 0008644 251.8301 108.1982 15.03169880426278 PO-101 1 43678U 18084H 26235.98566339 .00001465 00000-0 12087-3 0 9993 2 43678 98.1207 75.1778 0010484 307.2066 52.8199 15.00671738426388 QO-100 1 43700U 18090A 26235.94948579 .00000000 00000-0 00000-0 0 9995 2 43700 0.0261 122.5245 0002434 58.3815 158.9299 1.00269891 28356 MinXSS-2 1 43758U 18099A 26234.94432550 .00038441 00000-0 64973-3 0 9995 2 43758 97.4482 313.3930 0006213 31.4197 328.7425 15.51489832424469 AO-95 1 43770U 18099N 26235.62251427 .00010047 00000-0 36991-3 0 9998 2 43770 97.4333 295.6603 0010136 107.9674 252.2671 15.27999716423514 SNUSat 2 1 43782U 18099AA 26235.57671534 .00007009 00000-0 30270-3 0 9998 2 43782 97.4011 287.9466 0011519 65.3232 294.9202 15.22751949423280 SnugLite 1 43784U 18099AC 26235.14346310 .00009554 00000-0 34733-3 0 9999 2 43784 97.3823 288.8053 0004221 71.0722 289.0975 15.28465545423545 ITASat 1 1 43786U 18099AE 26235.85318234 .00005380 00000-0 25384-3 0 9998 2 43786 97.3982 286.0281 0014026 113.7449 246.5258 15.19792675423189 EAGLET 1 1 43790U 18099AJ 26235.57008068 .00003140 00000-0 17931-3 0 9994 2 43790 97.4182 283.4528 0012673 110.2979 249.9616 15.13374370422522 ESEO 1 43792U 18099AL 26235.82751832 .00001231 00000-0 92097-4 0 9994 2 43792 97.3942 270.3116 0013921 101.2913 258.9879 15.04423102421977 JO-97 1 43803U 18099AX 26235.90603510 .00016064 00000-0 46494-3 0 9994 2 43803 97.4079 299.0516 0006112 44.9891 315.1847 15.35659551424018 Suomi 100 1 43804U 18099AY 26235.41102571 .00010094 00000-0 35130-3 0 9994 2 43804 97.4135 295.6008 0010650 50.6036 309.6145 15.29837450423698 ISAT 1 43879U 18111D 26234.78628198 .00205127 00000-0 99713-3 0 9998 2 43879 97.5804 175.8756 0008059 100.6872 259.5304 15.81832382421636 UWE-4 1 43880U 18111E 26235.75879803 .00035037 00000-0 62020-3 0 9991 2 43880 97.5814 167.4658 0009959 83.1766 277.0618 15.50168497421238 Sparrow 1 43881U 18111F 26228.98401838 .16116594 28263-5 19760-3 0 9992 2 43881 97.5857 177.1140 0010462 202.8700 157.2139 16.49385238421037 Prox-1 1 44339U 19036A 26235.76890744 .00012234 00000-0 11482-2 0 9995 2 44339 23.9957 22.2847 0006196 95.2297 264.8910 14.92021279383574 Taurus 1 1 44530U 19059C 26235.92678043 .00004890 00000-0 77447-3 0 9990 2 44530 98.6480 45.0166 0009668 99.3665 260.8635 14.72708839368615 TO-108 1 44881U 19093C 26235.96098472 .00001056 00000-0 12491-3 0 9992 2 44881 97.7484 306.5256 0012382 219.4788 140.5527 14.86608493361483 RS-44 1 44909U 19096E 26235.86499991 .00000022 00000-0 46473-4 0 9996 2 44909 82.5213 294.7413 0217146 346.4372 13.0950 12.79748881311007 SALSAT 1 46495U 20068K 26235.95590157 .00006873 00000-0 23443-3 0 9996 2 46495 97.8879 243.2009 0011187 69.3904 290.8534 15.30648655325720 CSS (TIANHE-1) 1 48274U 21035A 26235.49167945 .00015233 00000-0 19266-3 0 9990 2 48274 41.4684 273.4428 0001587 254.2728 105.7935 15.59190448303670 TeikyoSat 4 1 49396U 21102B 26235.79673462 .00001366 00000-0 88373-4 0 9998 2 49396 97.3650 262.6507 0013516 64.0713 296.1908 15.09711762262923 Z-Sat 1 49399U 21102E 26235.93967645 .00003126 00000-0 15330-3 0 9994 2 49399 97.3303 269.2115 0016924 17.1530 343.0273 15.18719325263720 KOSEN 1 1 49402U 21102H 26235.10129327 .00006114 00000-0 22829-3 0 9996 2 49402 97.3148 275.9796 0012422 338.0393 22.0313 15.27676766264239 HO-113 1 50466U 21131B 26235.94524310 .00000182 00000-0 69933-4 0 9990 2 50466 98.4974 327.9676 0002900 249.7779 110.3098 14.41409070244877 SNUGLITE 2 1 52899U 22065F 26235.19739237 .00000795 00000-0 15929-3 0 9997 2 52899 98.2293 19.9476 0007793 164.3154 195.8292 14.64451362220808 UmKA 1 (RS40S) 1 57172U 23091G 26235.91403009 .00005113 00000-0 23021-3 0 9992 2 57172 97.4998 294.3608 0011058 238.5419 121.4737 15.21474427174306 CubeBel-2 (EU11S) 1 57175U 23091K 26235.94282044 .00012292 00000-0 41709-3 0 9991 2 57175 97.5000 299.8173 0008265 226.5972 133.4581 15.30634275174666 RS-38S 1 57189U 23091Z 26235.91958856 .00015432 00000-0 41488-3 0 9997 2 57189 97.5043 306.8403 0007175 174.9975 185.1343 15.37966072175099 SONATE-2 1 59112U 24043Q 26235.88395290 .00043855 00000-0 46722-3 0 9992 2 59112 97.5590 30.7324 0004741 311.4513 48.6337 15.63857613138455 GRBBeta 1 60237U 24128C 26235.70731218 .00003450 00000-0 24081-3 0 9992 2 60237 61.9919 339.2954 0031126 149.4584 210.8330 15.07056643116448 Curium One 1 60242U 24128H 26235.51750288 .00006811 00000-0 38793-3 0 9994 2 60242 61.9799 327.1424 0030072 145.1501 215.1572 15.13379670116642 ROBUSTA-3A 1 60243U 24128J 26235.25679720 .00006418 00000-0 37489-3 0 9991 2 60243 61.9879 330.9172 0032096 142.0302 218.3066 15.12494110116567 CatSat 1 60246U 24125J 26235.04408835 .00084506 00000-0 77136-3 0 9992 2 60246 97.2015 88.8226 0014447 290.0243 69.9462 15.67469257117836 HYPERVIEW-1G (RS66S) 1 61772U 24199AP 26230.11543498 .07890463 24672-5 93922-3 0 9997 2 61772 97.2456 114.2453 0006603 245.8477 114.2131 16.36574258144515 AO-123 1 61781U 24199AY 26235.91184689 .00007137 00000-0 20155-3 0 9996 2 61781 97.2901 103.9784 0015275 68.6587 291.6286 15.36553775144320 LASARsat 1 62391U 24247Q 26235.90834265 .00035522 00000-0 61185-3 0 9996 2 62391 44.9713 240.4746 0007948 44.4926 315.6602 15.50477502 93815 CroCube 1 62394U 24247T 26235.35906192 .00041109 00000-0 64528-3 0 9999 2 62394 44.9686 239.6311 0008124 50.5412 309.6198 15.53009612 93774 JINJUSat 1B 1 63210U 25052A 26235.50778978 .00015509 00000-0 45242-3 0 9995 2 63210 97.3905 132.4160 0003042 158.7996 201.3374 15.35433092 80427 NUSHSAT 1 1 63211U 25052B 26235.17171990 .00018043 00000-0 47784-3 0 9999 2 63211 97.3880 132.8999 0002652 155.7534 204.3836 15.38414746 80430 TEVEL2-4 1 63213U 25052D 26234.70844697 .00017147 00000-0 47900-3 0 9994 2 63213 97.3801 131.2825 0001670 162.0503 198.0800 15.36771259 80323 TEVEL2-5 1 63214U 25052E 26235.58377920 .00017757 00000-0 49877-3 0 9994 2 63214 97.3801 132.0880 0001643 161.6633 198.4671 15.36592311 80457 TEVEL2-6 1 63215U 25052F 26235.66277303 .00017720 00000-0 49825-3 0 9991 2 63215 97.3803 132.1522 0001566 160.0200 200.1106 15.36560801 80465 TEVEL2-1 1 63217U 25052H 26234.67461860 .00016613 00000-0 47710-3 0 9997 2 63217 97.3774 130.7017 0000916 187.6734 172.4496 15.35914378 80297 TEVEL2-3 1 63218U 25052J 26235.44826496 .00016417 00000-0 47005-3 0 9993 2 63218 97.3780 131.5089 0000932 170.6222 189.5039 15.36010345 80413 TEVEL2-2 1 63219U 25052K 26235.52137632 .00017088 00000-0 49001-3 0 9993 2 63219 97.3779 131.5538 0001071 187.6337 172.4890 15.35954711 80421 TEVEL2-9 1 63237U 25052AD 26235.52419767 .00015577 00000-0 47838-3 0 9992 2 63237 97.3841 130.7774 0003709 257.7225 102.3603 15.33803600 80342 TEVEL2-7 1 63238U 25052AE 26235.51388802 .00015154 00000-0 47057-3 0 9991 2 63238 97.3840 130.6525 0003641 257.9226 102.1608 15.33456949 80335 TEVEL2-8 1 63239U 25052AF 26235.78376173 .00014705 00000-0 45678-3 0 9997 2 63239 97.3846 130.8971 0003668 258.3346 101.7485 15.33453036 80372 SPIRONE 1 66657U 25274H 26235.78156888 .00001351 00000-0 13267-3 0 9991 2 66657 97.7469 164.1140 0012774 142.9065 217.3040 14.93776330 40317 K-HERO 1 66660U 25274L 26235.23202701 .00001642 00000-0 15840-3 0 9993 2 66660 97.7477 163.7819 0014542 149.3330 210.8743 14.94172908 40241 SNUGLITE-III DURI 1 66661U 25274M 26235.55344812 .00001643 00000-0 15847-3 0 9997 2 66661 97.7473 164.1198 0015219 149.6622 210.5482 14.94187309 40295 SAKHACUBE-CHOLBON 1 67290U 25313AU 26235.65926860 .00008391 00000-0 32885-3 0 9998 2 67290 97.3892 309.8855 0010635 115.1475 245.0868 15.25971787 36263 RS95S (QMR-KWT-2) 1 67291U 25313AV 26235.70536808 .00012980 00000-0 47866-3 0 9998 2 67291 97.3889 310.2720 0010191 113.5034 246.7277 15.27875262 36295 Ten-Koh2 1 68261U 25241B 26235.80872786 .00007285 00000-0 30423-3 0 9998 2 68261 51.6641 357.6052 0006545 6.1619 353.9439 15.24638731 25226 JACK-002 1 68417U 26067B 26235.45140564 .00005471 00000-0 25628-3 0 9997 2 68417 97.4621 193.2668 0003747 65.3464 294.8161 15.20115020 22160 DISCO 2 1 68431U 26067R 26235.94362687 .00007060 00000-0 33112-3 0 9992 2 68431 97.4652 193.7486 0004144 102.7841 257.3858 15.19971810 22230 HADES-SA (SpinnyONE) 1 68446U 26067AG 26235.82416746 .00016961 00000-0 76335-3 0 9995 2 68446 97.4438 193.2298 0005939 175.3421 184.7871 15.21143196 22203 PARUS-6U1 1 68456U 26067AS 26235.30021944 .00004829 00000-0 23988-3 0 9997 2 68456 97.4606 192.6822 0005465 170.2123 189.9218 15.18126905 22111 SAL-E 1 68458U 26067AU 26235.34549275 .00006239 00000-0 30470-3 0 9996 2 68458 97.4529 192.6329 0005293 178.5087 181.6164 15.18604494 22122 FSI-SAT 2 1 68792U 26088A 26235.87639716 .00003693 00000-0 24838-3 0 9990 2 68792 97.5157 23.4940 0012990 231.8720 128.1338 15.07289873 18481 OrigamiSat 2 1 68795U 26088D 26235.38267478 .00010368 00000-0 63909-3 0 9990 2 68795 97.5138 23.3851 0014484 203.3039 156.7536 15.10053413 18435 ARICA 2 1 68796U 26088E 26235.87985674 .00003992 00000-0 25669-3 0 9996 2 68796 97.5148 23.7804 0014934 201.0453 159.0163 15.08886453 18509 WASEDA-SAT-ZERO-II 1 68797U 26088F 26235.86150612 .00005024 00000-0 31847-3 0 9995 2 68797 97.5140 23.8003 0014785 200.4294 159.6345 15.09289550 18508 MANGARO-II-Piscus 1 68798U 26088G 26235.85115205 .00002874 00000-0 18424-3 0 9990 2 68798 97.5151 23.8310 0018255 205.0510 154.9835 15.09187075 18501 CO-128 1 69912U 26156AV 26235.52565090 .00001277 00000-0 13508-3 0 9994 2 69912 97.7506 135.1425 0002773 20.5623 339.5706 14.90890767 7035 MARINA 1 69920U 26156BD 26235.15342546 .00001936 00000-0 19603-3 0 9995 2 69920 97.7474 134.8434 0007774 11.5792 348.5604 14.92084912 6986 IO-86 1 40931U 26199.45381863 .00000000 00000-0 77536-4 0 07 2 40931 6.0006 322.6653 0012733 338.8432 273.6875 14.79294310 03 LILIUM-4 1 71922C 26067AC 26089.50133053 -.00014632 00000 0 -74472-3 0 04 2 71922 97.4497 49.1617 0004341 5.9603 355.7042 15.16896692 16